Weather History for KDVN - September, 2013

Change the Weather History Date:

Saturday, September 7, 2013

  Actual Average Record
Temperature  
Mean Temperature 80 °F 67 °F  
Max Temperature 92 °F 78 °F 97 °F (1960)
Min Temperature 67 °F 55 °F 43 °F (2011)
Degree Days  
Heating Degree Days 0 2  
Month to date heating degree days 3 9  
Since 1 July heating degree days 22 23  
Cooling Degree Days 15 3  
Month to date cooling degree days 45 27  
Year to date cooling degree days 818 731  
Growing Degree Days 30 (Base 50)    
Moisture  
Dew Point 64 °F    
Average Humidity 60    
Maximum Humidity 76    
Minimum Humidity 44    
Precipitation  
Precipitation T in 0.09 in 0.61 in (2012)
Month to date precipitation T 0.66  
Year to date precipitation 28.39 26.48  
Snow  
Snow 0.00 in - - ()
Month to date snowfall 0.0  
Since 1 July snowfall 0.0  
Since 1 September snowfall 0.0  
Snow Depth 0.00 in    
Sea Level Pressure  
Sea Level Pressure 29.93 in    
Wind  
Wind Speed 8 mph (South)    
Max Wind Speed 16 mph    
Max Gust Speed 22 mph    
Visibility 10 miles    
Events      
T = Trace of Precipitation, MM = Missing Value Source: NWS Daily Summary

Daily Weather History Graph

Daily Weather History Graph

Search for Another Location

Airport or City:

Trip Planner

Search our weather history database for the weather conditions in past years. The results will help you decide how hot, cold, wet, or windy it might be!

Date:

Astronomy

Sep. 07, 2013 Rise Set
Actual Time 6:34 AM CDT 7:25 PM CDT
Civil Twilight 6:06 AM CDT 7:53 PM CDT
Nautical Twilight 5:33 AM CDT 8:26 PM CDT
Astronomical Twilight 4:58 AM CDT 9:01 PM CDT
Moon 8:51 AM CDT (9/7) 8:20 PM CDT (9/7)
Length of Visible Light 13h 46m
Length of Day
12h 50m
Waxing Crescent, 5% of the Moon is Illuminated
Sep 7
Waxing Crescent
Sep 12
First Quarter
Sep 19
Full
Sep 26
Last Quarter
Oct 4
New

Hourly Weather History & Observations

Time (CDT) Temp. Heat Index Dew Point Humidity Pressure Visibility Wind Dir Wind Speed Gust Speed Precip Events Conditions
12:52 AM 73.0 °F - 61.0 °F 66% 29.99 in 10.0 mi South 9.2 mph - N/A   Clear
1:52 AM 73.0 °F - 61.0 °F 66% 29.99 in 9.0 mi SSW 10.4 mph - N/A   Clear
2:52 AM 71.1 °F - 61.0 °F 70% 29.98 in 9.0 mi SSW 8.1 mph - N/A   Clear
3:52 AM 69.1 °F - 61.0 °F 75% 29.97 in 8.0 mi SSW 6.9 mph - N/A   Clear
4:52 AM 69.1 °F - 60.1 °F 73% 29.97 in 8.0 mi SSW 8.1 mph - N/A   Clear
5:52 AM 68.0 °F - 60.1 °F 76% 29.98 in 9.0 mi SSW 5.8 mph - N/A   Clear
6:52 AM 69.1 °F - 60.1 °F 73% 29.99 in 9.0 mi South 5.8 mph - N/A   Clear
7:52 AM 70.0 °F - 60.1 °F 71% 29.99 in 10.0 mi SSW 5.8 mph - 0.00 in   Clear
8:52 AM 73.9 °F - 61.0 °F 64% 29.97 in 10.0 mi SSW 8.1 mph - N/A   Clear
9:52 AM 79.0 °F - 62.1 °F 56% 29.97 in 10.0 mi SW 9.2 mph - N/A   Clear
10:52 AM 81.0 °F 82.2 °F 63.0 °F 54% 29.97 in 10.0 mi WSW 6.9 mph - N/A   Clear
11:52 AM 84.0 °F 85.4 °F 64.0 °F 51% 29.93 in 10.0 mi SSW 12.7 mph 21.9 mph N/A   Clear
12:52 PM 86.0 °F 88.2 °F 66.0 °F 51% 29.93 in 10.0 mi SSW 8.1 mph - N/A   Clear
1:52 PM 89.1 °F 91.3 °F 66.0 °F 46% 29.90 in 10.0 mi SSW 9.2 mph - N/A   Clear
2:52 PM 90.0 °F 92.4 °F 66.0 °F 45% 29.87 in 10.0 mi SSW 11.5 mph - N/A   Clear
3:52 PM 91.0 °F 94.3 °F 66.9 °F 45% 29.87 in 10.0 mi SW 11.5 mph - N/A   Clear
4:52 PM 89.1 °F 91.3 °F 66.0 °F 46% 29.88 in 10.0 mi South 5.8 mph - N/A   Clear
5:52 PM 88.0 °F 91.4 °F 68.0 °F 51% 29.87 in 10.0 mi South 5.8 mph - N/A   Clear
6:52 PM 86.0 °F 88.8 °F 66.9 °F 53% 29.86 in 10.0 mi SSE 4.6 mph - N/A   Clear
7:52 PM 84.0 °F 86.5 °F 66.9 °F 56% 29.87 in 10.0 mi SSE 5.8 mph - N/A   Clear
8:52 PM 82.9 °F 85.4 °F 66.9 °F 58% 29.88 in 10.0 mi SSE 5.8 mph - N/A   Mostly Cloudy
9:52 PM 80.1 °F 82.7 °F 68.0 °F 67% 29.89 in 10.0 mi ESE 6.9 mph - N/A   Mostly Cloudy
10:52 PM 78.1 °F - 68.0 °F 71% 29.89 in 10.0 mi East 6.9 mph - N/A   Mostly Cloudy
11:52 PM 77.0 °F - 68.0 °F 74% 29.88 in 10.0 mi ESE 6.9 mph - N/A   Mostly Cloudy